[[{"header":{"parameterUnit":"m.s-1","parameterCategory":1,"la1":30.2991,"la2":30.254,"lo1":-89.0895,"lo2":-89.0444,"dy":0.0017,"dx":0.0017,"nx":28,"ny":28,"refTime":"2025-11-22T09:00:00:Z","depth":0,"parameterNumber":2,"parameterNumberName":"U-component_of_WINDS"},"data":[0,0,0,0,0,0,0,0,0,0,0,0,0,0,0,0,0,0,0,0,0,0,0,0,0,0,0,0,0,0,0,0,0,0,0,0,0,0,0,0,0,0,0,0,0,0,0,0,0,0,0,0,0,0,0,0,0,0,1.8692,1.8693,0,1.8731,1.8731,1.8732,1.8705,1.8704,1.8703,1.8702,1.8741,1.8744,1.8746,0,0,0,0,0,0,0,0,0,0,0,0,0,1.8595,1.8597,1.8692,1.8693,1.8693,1.8731,1.8731,1.8732,1.8706,1.8704,1.8703,1.8701,1.8741,1.8743,1.8746,0,0,0,0,0,0,0,0,0,0,0,0,0,1.8636,1.8598,1.8692,1.8684,1.8684,1.8731,1.8731,1.8732,1.8706,1.8704,1.8702,1.8701,1.874,1.8743,1.8746,1.8802,0,0,1.8756,1.8758,0,0,0,0,0,0,0,0,1.8634,1.864,1.8685,1.8685,1.8685,1.8711,1.8712,1.8756,1.8706,1.8698,1.8702,1.87,1.8733,1.8737,1.8748,1.8804,1.8806,1.8757,1.8759,1.876,1.8761,0,0,0,0,0,0,0,1.8631,1.8638,1.8707,1.8686,1.8686,1.8679,1.8683,1.872,1.8725,1.8698,1.8696,1.8701,1.8732,1.8745,1.8749,1.8806,1.8756,1.8759,1.8761,1.8763,1.891,1.8912,0,0,0,0,0,0,1.8629,1.8636,1.8706,1.8709,1.8654,1.8682,1.8687,1.8705,1.8724,1.8726,1.8703,1.87,1.874,1.8745,1.875,1.8816,1.876,1.8763,1.8765,1.8908,1.8911,1.8913,0,0,0,0,0,0,1.8627,1.8635,1.8705,1.8672,1.868,1.8686,1.8706,1.8706,1.8719,1.8728,1.8729,1.8714,1.8739,1.8745,1.8789,1.8817,1.8764,1.8767,1.8906,1.8909,1.8912,1.895,0,0,0,0,0,0,1.8624,1.8635,1.8656,1.8672,1.8682,1.8744,1.8708,1.8708,1.8724,1.8721,1.8739,1.874,1.8738,1.8785,1.8793,1.8821,1.877,1.8903,1.8907,1.8911,1.8946,1.8954,1.896,0,0,0,0,0,1.8621,1.8665,1.8657,1.8666,1.8709,1.8745,1.8751,1.8747,1.8727,1.8748,1.8754,1.874,1.8813,1.8789,1.8798,1.8828,1.8902,1.8906,1.8911,1.8943,1.8952,1.896,0,0,0,0,0,0,1.8652,1.8667,1.8659,1.871,1.8726,1.8741,1.8768,1.8757,1.878,1.8776,1.877,1.8775,1.8821,1.8829,1.8802,1.8883,1.8854,1.8861,1.8876,1.8885,1.8892,1.8889,1.8773,0,0,0,0,0,1.8665,1.8694,1.8705,1.8749,1.8758,1.8762,1.8777,1.8773,1.879,1.8797,1.8806,1.8823,1.885,1.8868,1.8893,1.8947,1.8951,1.8972,1.8979,1.8985,1.899,1.9019,1.9029,1.8927,1.8927,1.8927,0,0,1.8692,1.8704,1.8722,1.8756,1.8768,1.8798,1.8768,1.88,1.8822,1.8802,1.8844,1.8852,1.887,1.8919,1.8942,1.8927,1.9019,1.8991,1.8995,1.8997,1.9025,1.9034,1.9043,1.893,1.893,1.8929,0,0,1.8756,1.8768,1.8806,1.8819,1.8838,1.884,1.8849,1.8865,1.8869,1.8912,1.8897,1.8923,1.897,1.8983,1.8996,1.9066,1.9053,1.9074,1.9111,1.9139,1.9147,1.9154,1.9179,1.9187,1.908,1.908,1.908,0,1.8787,1.8831,1.8827,1.886,1.8876,1.8859,1.8897,1.891,1.8937,1.8947,1.8931,1.8989,1.9001,1.9053,1.907,1.9081,1.9091,1.9072,1.9147,1.9154,1.916,1.9183,1.9192,1.9082,1.9082,1.9082,1.9082,0,1.8868,1.8899,1.8927,1.8953,1.8971,1.9007,1.9008,1.9027,1.9022,1.9025,1.9068,1.9082,1.9109,1.9121,1.9116,1.9173,1.9163,1.9147,1.9118,1.9172,1.9194,1.9203,1.9086,1.9085,1.9084,1.9084,0,0,1.8952,1.8976,1.8986,1.8997,1.9018,1.9041,1.9076,1.9103,1.9119,1.9139,1.9167,1.9207,1.9192,1.9207,1.9204,1.9228,1.9282,1.9209,1.9209,1.9222,1.9344,1.9356,1.9366,1.9274,1.9276,1.9277,1.9343,0,1.9017,1.9078,1.9075,1.9132,1.916,1.9145,1.9176,1.9191,1.9196,1.922,1.9225,1.9253,1.9232,1.924,1.9264,1.927,1.9306,1.9266,1.9301,1.9302,1.9296,1.9378,1.939,1.9451,1.9351,1.9353,1.9354,0,1.91,1.9122,1.9182,1.9198,1.9209,1.9237,1.9261,1.9285,1.9302,1.9304,1.932,1.9313,1.9348,1.9319,1.9367,1.9339,1.9354,1.9359,1.9361,1.9364,1.9331,1.9382,1.9471,1.948,1.9367,1.9366,1.9365,0,1.9155,1.9199,1.9241,1.9251,1.9271,1.929,1.9299,1.9315,1.9331,1.9353,1.9363,1.9388,1.9402,1.9422,1.9421,1.94,1.947,1.9441,1.9472,1.9472,1.9487,1.9486,1.9579,1.9497,1.9497,1.9497,1.9497,0,1.9227,1.9264,1.9266,1.9291,1.9332,1.9329,1.9369,1.9376,1.939,1.9417,1.9406,1.9431,1.9428,1.9454,1.9454,1.9493,1.95,1.9502,1.9501,1.9502,1.9502,1.9511,1.9507,1.9499,1.9499,1.9498,1.9498,0,1.9295,1.9297,1.9341,1.9356,1.9361,1.9391,1.9403,1.9427,1.9431,1.9465,1.9472,1.9478,1.9507,1.9509,1.9542,1.9542,1.959,1.9585,1.9584,1.9583,1.9614,1.9611,1.9715,1.9729,1.9639,1.964,1.9641,0,1.934,1.9368,1.9386,1.9403,1.9414,1.9441,1.9457,1.9455,1.9473,1.9495,1.9516,1.9545,1.9567,1.9614,1.9621,1.9647,1.9642,1.9677,1.9646,1.9646,1.9642,1.964,1.9642,1.9683,1.9684,1.9684,1.9685,0,1.942,1.942,1.9445,1.947,1.949,1.9509,1.9527,1.9542,1.9542,1.9562,1.9592,1.9609,1.9644,1.9671,1.9696,1.9706,1.9695,1.9695,1.9703,1.9704,1.9702,1.9703,1.96,1.9692,1.9692,1.9691,1.9691,1.969,1.9478,1.9502,1.9518,1.9546,1.9559,1.9577,1.96,1.9606,1.9631,1.9659,1.9656,1.9689,1.9706,1.9738,1.9749,1.9775,1.9763,1.9775,1.9778,1.9781,1.9784,1.9699,1.978,1.9779,1.9779,1.9779,1.9779,0,1.9557,1.9567,1.9592,1.9618,1.9639,1.9628,1.9648,1.9666,1.9695,1.9712,1.9734,1.9768,1.9795,1.9804,1.9831,1.9849,1.9845,1.9856,1.9854,1.9857,1.9794,1.9783,1.9859,1.9859,1.9859,1.9859,1.9859,1.9859,1.96,1.964,1.9642,1.9689,1.9698,1.9731,1.9743,1.9758,1.9771,1.981,1.9832,1.9838,1.9852,1.9879,1.9903,1.9905,1.9915,1.9928,1.9928,1.9869,1.9861,1.9853,1.9844,1.993,1.9931,1.9989,1.9989,1.999]},{"header":{"parameterUnit":"m.s-1","parameterCategory":1,"la1":30.2991,"la2":30.254,"lo1":-89.0895,"lo2":-89.0444,"dy":0.0017,"dx":0.0017,"nx":28,"ny":28,"refTime":"2025-11-22T09:00:00:Z","depth":0,"parameterNumber":3,"parameterNumberName":"V-component_of_WINDS"},"data":[0,0,0,0,0,0,0,0,0,0,0,0,0,0,0,0,0,0,0,0,0,0,0,0,0,0,0,0,0,0,0,0,0,0,0,0,0,0,0,0,0,0,0,0,0,0,0,0,0,0,0,0,0,0,0,0,0,0,1.6396,1.6396,0,1.6427,1.6427,1.6428,1.6415,1.6414,1.6414,1.6413,1.6444,1.6445,1.6447,0,0,0,0,0,0,0,0,0,0,0,0,0,1.6323,1.6324,1.6396,1.6396,1.6397,1.6427,1.6427,1.6428,1.6415,1.6414,1.6413,1.6413,1.6444,1.6445,1.6447,0,0,0,0,0,0,0,0,0,0,0,0,0,1.6354,1.6325,1.6396,1.6394,1.6394,1.6427,1.6427,1.6428,1.6415,1.6414,1.6413,1.6412,1.6443,1.6445,1.6447,1.6484,0,0,1.6454,1.6455,0,0,0,0,0,0,0,0,1.6353,1.6357,1.6394,1.6394,1.6394,1.6416,1.6413,1.6447,1.6416,1.6407,1.6413,1.6412,1.6436,1.6438,1.6447,1.6485,1.6486,1.6455,1.6456,1.6457,1.6458,0,0,0,0,0,0,0,1.6351,1.6356,1.6408,1.6394,1.6395,1.6391,1.6394,1.6419,1.6427,1.6408,1.6407,1.6411,1.6435,1.6444,1.6447,1.6487,1.6454,1.6456,1.6458,1.6459,1.6555,1.6556,0,0,0,0,0,0,1.6348,1.6354,1.6407,1.6409,1.637,1.6393,1.6397,1.641,1.6427,1.6428,1.6412,1.641,1.6441,1.6445,1.6448,1.6491,1.6457,1.6459,1.646,1.6554,1.6556,1.6557,0,0,0,0,0,0,1.6347,1.6353,1.6406,1.6381,1.6388,1.6396,1.6411,1.6411,1.642,1.643,1.6431,1.642,1.644,1.6445,1.6475,1.6492,1.646,1.6462,1.6553,1.6555,1.6556,1.6578,0,0,0,0,0,0,1.6345,1.6353,1.6367,1.6382,1.6389,1.6432,1.6412,1.6413,1.6425,1.6423,1.6438,1.6439,1.644,1.6471,1.6477,1.6495,1.6464,1.6551,1.6554,1.6556,1.6576,1.658,1.6584,0,0,0,0,0,1.6342,1.6372,1.6368,1.6375,1.6407,1.6434,1.6438,1.6438,1.6426,1.644,1.6446,1.6439,1.6489,1.6475,1.6481,1.65,1.655,1.6553,1.6556,1.6574,1.658,1.6584,0,0,0,0,0,0,1.636,1.6374,1.637,1.6405,1.6418,1.6431,1.6449,1.6444,1.6461,1.6458,1.6458,1.6461,1.6492,1.6499,1.6482,1.6535,1.6518,1.6522,1.653,1.6535,1.6539,1.6537,1.6466,0,0,0,0,0,1.6368,1.6388,1.6399,1.643,1.6436,1.6442,1.6453,1.6452,1.6466,1.6471,1.6479,1.6492,1.6511,1.6523,1.6541,1.6576,1.6579,1.6592,1.6596,1.66,1.6604,1.6622,1.6628,1.6566,1.6566,1.6566,0,0,1.6384,1.6395,1.6408,1.6433,1.6443,1.6464,1.6446,1.6469,1.6484,1.6474,1.6503,1.6509,1.6523,1.6556,1.6571,1.6562,1.6621,1.6603,1.6606,1.6608,1.6625,1.6631,1.6636,1.6568,1.6567,1.6567,0,0,1.6425,1.6435,1.6461,1.6471,1.6487,1.649,1.6496,1.651,1.6514,1.6542,1.6535,1.6552,1.6585,1.6595,1.6604,1.6648,1.6641,1.6653,1.6676,1.6694,1.6699,1.6703,1.6718,1.6724,1.6657,1.6657,1.6657,0,1.6444,1.6476,1.6475,1.6499,1.651,1.6501,1.6527,1.6537,1.6557,1.6565,1.6555,1.6595,1.6604,1.6638,1.6649,1.6657,1.6663,1.6652,1.6698,1.6702,1.6706,1.6721,1.6727,1.6658,1.6658,1.6658,1.6658,0,1.6497,1.6519,1.6538,1.6558,1.6571,1.6596,1.6598,1.6611,1.6609,1.6613,1.6642,1.6652,1.6671,1.6679,1.6677,1.6713,1.6707,1.6698,1.6681,1.6714,1.6727,1.6733,1.666,1.666,1.6659,1.6659,0,0,1.6552,1.657,1.6577,1.6585,1.6601,1.6617,1.6641,1.666,1.6671,1.6685,1.6704,1.6731,1.6722,1.6733,1.6732,1.6747,1.678,1.6736,1.6736,1.6744,1.682,1.6827,1.6834,1.6776,1.6777,1.6778,1.6819,0,1.6594,1.6635,1.6635,1.6674,1.6693,1.6685,1.6705,1.6716,1.672,1.6737,1.6741,1.676,1.6747,1.6753,1.6768,1.6773,1.6796,1.677,1.6794,1.6794,1.6791,1.6841,1.6849,1.6887,1.6824,1.6825,1.6826,0,1.6649,1.6664,1.6705,1.6716,1.6725,1.6743,1.676,1.6776,1.6788,1.679,1.6801,1.6797,1.682,1.6802,1.6833,1.6816,1.6825,1.6829,1.683,1.6833,1.6812,1.6845,1.69,1.6905,1.6834,1.6833,1.6833,0,1.6684,1.6715,1.6743,1.675,1.6765,1.6778,1.6784,1.6795,1.6806,1.6821,1.6828,1.6845,1.6854,1.6867,1.6867,1.6854,1.6898,1.688,1.69,1.69,1.6911,1.691,1.6968,1.6916,1.6916,1.6916,1.6916,0,1.6731,1.6756,1.6759,1.6776,1.6803,1.6802,1.6829,1.6834,1.6844,1.6861,1.6855,1.6871,1.6871,1.6887,1.6887,1.6913,1.6917,1.6919,1.6918,1.6919,1.6919,1.6926,1.6923,1.6917,1.6917,1.6917,1.6916,0,1.6776,1.6779,1.6808,1.6819,1.6822,1.6842,1.6851,1.6867,1.687,1.6892,1.6897,1.6901,1.692,1.6922,1.6943,1.6943,1.6975,1.6971,1.6971,1.697,1.699,1.6988,1.7054,1.7063,1.7005,1.7006,1.7006,0,1.6806,1.6825,1.6838,1.6849,1.6857,1.6875,1.6886,1.6885,1.6897,1.6911,1.6925,1.6944,1.6958,1.6989,1.6993,1.701,1.7007,1.7029,1.701,1.701,1.7007,1.7006,1.7008,1.7033,1.7034,1.7034,1.7035,0,1.686,1.686,1.6876,1.6893,1.6907,1.692,1.6932,1.6941,1.6942,1.6955,1.6974,1.6986,1.7008,1.7026,1.7041,1.7047,1.7041,1.704,1.7046,1.7047,1.7046,1.7047,1.6981,1.7039,1.7039,1.7038,1.7038,1.7038,1.6898,1.6914,1.6926,1.6944,1.6953,1.6964,1.6979,1.6984,1.7,1.7018,1.7016,1.7037,1.7048,1.7068,1.7075,1.7091,1.7084,1.7092,1.7094,1.7096,1.7098,1.7043,1.7094,1.7094,1.7094,1.7094,1.7094,0,1.6951,1.6958,1.6975,1.6992,1.7006,1.6998,1.7011,1.7023,1.7042,1.7053,1.7067,1.7088,1.7106,1.7111,1.7127,1.7139,1.7137,1.7144,1.7143,1.7144,1.7104,1.7098,1.7145,1.7145,1.7145,1.7145,1.7145,1.7145,1.6981,1.7008,1.7009,1.7039,1.7046,1.7067,1.7074,1.7084,1.7092,1.7117,1.7131,1.7135,1.7143,1.7159,1.7174,1.7176,1.7182,1.719,1.719,1.7152,1.7147,1.7142,1.7136,1.7192,1.7192,1.7229,1.723,1.723]}]]